TimeMDT,TemperatureF,Dew PointF,Humidity,Sea Level PressureIn,VisibilityMPH,Wind Direction,Wind SpeedMPH,Gust SpeedMPH,PrecipitationIn,Events,Conditions,WindDirDegrees,DateUTC
12:06 AM,28.4,28.4,100,29.64,6.0,WNW,15.0,-,N/A,,Overcast,290,2012-10-23 06:06:00
12:37 AM,28.4,26.6,93,29.63,10.0,West,12.7,-,N/A,,Overcast,280,2012-10-23 06:37:00
12:54 AM,28.9,27.0,92,29.69,10.0,West,12.7,-,N/A,,Overcast,270,2012-10-23 06:54:00
1:16 AM,28.4,26.6,93,29.63,10.0,West,10.4,-,N/A,,Overcast,270,2012-10-23 07:16:00
1:54 AM,28.0,26.1,92,29.69,10.0,West,5.8,-,N/A,,Overcast,260,2012-10-23 07:54:00
2:54 AM,28.0,26.1,92,29.69,10.0,WSW,8.1,-,N/A,,Overcast,250,2012-10-23 08:54:00
4:44 AM,28.4,24.8,86,29.69,10.0,West,11.5,-,N/A,,Overcast,280,2012-10-23 10:44:00
4:54 AM,27.0,25.0,92,29.77,10.0,WNW,10.4,-,N/A,,Overcast,300,2012-10-23 10:54:00
6:11 AM,26.6,23.0,86,29.71,10.0,WNW,11.5,-,N/A,,Overcast,290,2012-10-23 12:11:00
6:54 AM,25.0,21.9,88,29.83,10.0,WNW,12.7,-,N/A,,Overcast,290,2012-10-23 12:54:00
7:54 AM,25.0,21.0,85,29.86,10.0,WNW,15.0,21.9,N/A,,Mostly Cloudy,290,2012-10-23 13:54:00
8:54 AM,24.1,19.9,84,29.90,10.0,West,12.7,-,N/A,,Mostly Cloudy,260,2012-10-23 14:54:00
9:10 AM,24.8,19.4,80,29.80,10.0,West,16.1,-,N/A,,Scattered Clouds,260,2012-10-23 15:10:00
9:54 AM,26.1,21.0,81,29.89,10.0,West,12.7,-,N/A,,Scattered Clouds,270,2012-10-23 15:54:00
10:02 AM,26.6,21.2,80,29.81,10.0,West,12.7,-,N/A,,Mostly Cloudy,270,2012-10-23 16:02:00
10:35 AM,28.4,21.2,74,29.80,10.0,West,17.3,-,N/A,,Mostly Cloudy,280,2012-10-23 16:35:00
10:44 AM,28.4,21.2,74,29.80,10.0,WNW,17.3,23.0,N/A,,Scattered Clouds,290,2012-10-23 16:44:00
10:54 AM,27.0,21.0,78,29.88,10.0,WNW,15.0,-,N/A,,Mostly Cloudy,290,2012-10-23 16:54:00
11:27 AM,28.4,21.2,74,29.81,10.0,West,16.1,24.2,N/A,,Scattered Clouds,280,2012-10-23 17:27:00
11:39 AM,28.4,21.2,74,29.81,10.0,WNW,12.7,-,N/A,,Mostly Cloudy,290,2012-10-23 17:39:00
11:54 AM,28.0,21.0,75,29.90,10.0,WNW,9.2,19.6,N/A,,Overcast,290,2012-10-23 17:54:00
12:54 PM,28.0,21.0,75,29.91,10.0,WNW,11.5,-,N/A,,Overcast,300,2012-10-23 18:54:00
1:54 PM,30.0,21.9,72,29.91,10.0,West,10.4,-,N/A,,Overcast,260,2012-10-23 19:54:00
2:54 PM,30.0,21.9,72,29.91,10.0,NW,11.5,-,N/A,,Mostly Cloudy,310,2012-10-23 20:54:00
3:54 PM,28.9,21.9,75,29.94,10.0,NW,8.1,-,N/A,,Overcast,320,2012-10-23 21:54:00
4:54 PM,28.9,21.0,72,29.96,10.0,Calm,Calm,-,N/A,,Overcast,0,2012-10-23 22:54:00
5:54 PM,27.0,19.9,75,29.96,10.0,North,6.9,-,N/A,,Overcast,360,2012-10-23 23:54:00
6:54 PM,25.0,19.0,78,29.99,10.0,NNW,9.2,-,N/A,,Overcast,330,2012-10-24 00:54:00
7:54 PM,24.1,19.0,81,30.03,8.0,WNW,6.9,-,0.00,Snow,Light Snow,300,2012-10-24 01:54:00
8:08 PM,24.8,17.6,74,29.92,5.0,WNW,9.2,-,0.00,Snow,Light Snow,300,2012-10-24 02:08:00
8:15 PM,23.0,19.4,86,29.92,1.8,WNW,8.1,-,0.00,Snow,Light Snow,290,2012-10-24 02:15:00
8:24 PM,21.2,19.4,93,29.92,0.8,WNW,8.1,-,0.01,Snow,Light Snow,300,2012-10-24 02:24:00
8:40 PM,21.2,19.4,93,29.93,0.5,WNW,9.2,-,0.02,Fog-Snow,Snow,300,2012-10-24 02:40:00
8:54 PM,21.9,19.9,92,30.06,0.5,WNW,9.2,-,0.03,Fog-Snow,Snow,300,2012-10-24 02:54:00
9:54 PM,21.0,19.9,96,30.07,0.5,NW,3.5,-,0.09,Fog-Snow,Snow,310,2012-10-24 03:54:00
10:20 PM,21.2,19.4,93,29.95,1.0,Calm,Calm,-,0.02,Snow,Light Snow,0,2012-10-24 04:20:00
10:39 PM,21.2,19.4,93,29.95,1.5,WNW,8.1,-,0.02,Snow,Light Snow,300,2012-10-24 04:39:00
10:48 PM,19.4,17.6,93,29.95,0.8,WNW,8.1,-,0.03,Snow,Light Snow,290,2012-10-24 04:48:00
10:49 PM,19.4,17.6,93,29.95,0.8,WNW,8.1,-,0.03,Snow,Light Snow,290,2012-10-24 04:49:00
10:54 PM,19.9,19.0,96,30.08,0.8,WNW,8.1,-,0.03,Snow,Light Snow,290,2012-10-24 04:54:00
11:02 PM,19.4,17.6,93,29.95,1.0,WNW,6.9,-,0.01,Snow,Light Snow,290,2012-10-24 05:02:00
11:44 PM,19.4,17.6,93,29.96,1.8,West,6.9,-,0.02,Snow,Light Snow,280,2012-10-24 05:44:00
11:54 PM,19.9,18.0,92,30.09,3.0,West,6.9,-,0.02,Snow,Light Snow,280,2012-10-24 05:54:00